Timeline UpdatesTrip UpdatesNews PostsPvt Posts♥♥Travel TipsAdmin PostsConv PostsFollowed PostsChat RequestsBlog PostsPNR Posts

Disclaimer
Search
 
 
Thu Dec 18, 2014 22:52:55 ISTHomeTrainsΣChainsAtlasPNRForumGalleryNewsFAQTripsMembersLoginFeedback
No Recent News for this Train
Other Trains in the News **new
Latest...
.
Sat Feb 02, 2013 (04:10PM)
⇐ Return Journey: Train# 51187

51188/Katni - Bhusaval Passenger (UnReserved)

Time-Table HAS CHANGED.
Sep 05 2014 (2:13PM)
Change Departure Station:
Change Arrival Station:
Post a Train Travel TipPost a Train Travel Tip **new
Post a Comment/Question/Picture/VideoPost a Comment/Question/Picture/Video
Pantry/Catering
✕ NO Pantry Car
✕ NO Catering
RSA - Rake Sharing
Rake/Coach Composition
Loco
KTE-ET: KTE/ET WDM-3A ET-BSL: BSL/ET WAP-4
News    PNR    Forum    Time-Table    Availability    Fare Chart    Map    Arr/Dep History    Trips    Gallery    ΣChains    X/O    Timeline    
Travel Time: 16h 40m    62 halts    Distance: 552 km    Avg Speed: 33 km/hr
Type: Passenger
Zone: CR/Central
Departs @ 00:20 (Avg 53m late)
Platform# 1
SMTWTFS
Jabalpur Junction/JBP 
Arrives @ 17:00 (Avg 2h 19m late)
Platform# 6
SMTWTFS
Bhusaval Junction/BSL 

62 halts. 68 intermediate Stations between Jabalpur Junction and Bhusaval Junction

Hide intermediate Stations  Show Old Time-Table

#TrkCodeStation NameX/OArrivesAvgDepartsAvgHaltPFDay#KmSpeedElevZoneAddress
1%==|KTEKatni Junction (6)  -22:20+5751-90.932387mWCRKatni, Madhya Pradesh
1.1%==|KTESKatni South (2)  22:24-22:24-  1-89.0 32386mWCRKatni, Madhya Pradesh
2|==|MDRRMadhavnagar Road (2)  22:30-22:31-1m--1-85.647398mWCRMadhavnagar, Madhya Pradesh
3|==|NWRNiwar (2)X  22:41+1:3222:42+1:371m--1-77.752412mWCRPipraundh, Madhya Pradesh
4|==|SNRRSansarpur (2)X  22:51-22:52-1m--1-69.959436mWCRNational Highway 7, Madhya Pradesh
5|==|SBDSleemanabad Road (2)  22:59+4823:00+481m--1-63.057434mWCRSleemanabad, Madhya Pradesh
6|==|DDCEDundi (2)  23:10+1:3423:11+1:391m--1-53.560415mWCRDundi, Madhya Pradesh
7|==|SHRSihora Road (2)X  23:26+1:2923:28+1:352m--1-38.661388mWCRJabalpur, Madhya Pradesh
8|==|GSPRGosalpur (2)XO  23:39+1:4423:40+1:501m--1-27.557396mWCRJabalpur, Madhya Pradesh
9|==|DOEDeori (2)  23:51+1:3923:52+1:411m--1-17.048392mWCRJabalpur, Madhya Pradesh
10|==|ADTLAdhartal (2)  00:03+1:5400:04+1:581m--2-8.282393mWCRJabalpur, Madhya Pradesh
11|==|JBPJabalpur Junction (4)»X  00:20 00:10+4100:30 00:20+5310m120.014416mWCRJabalpur, Madhya Pradesh
11.1|==|HBGHowbagh Jabalpur (2)  00:29-00:29-  22.1 14405mSECRJabalpur, Madhya Pradesh
12|==|MMLMadan Mahal (3)  00:34+1:5400:36+1:552m123.356428mWCRJabalpur, Madhya Pradesh
12.1|==|KEQKachhpura (2)X  00:38-00:38-  25.1 56392mWCRJabalpur, Madhya Pradesh
13|==|BRGTBheraghat (2)  00:50+2:3900:51+2:451m--216.452389mWCRBheraghat, Madhya Pradesh
14|==|BHTNBhitoni (2)X  01:04 01:06+2:4101:05 01:08+2:481 2m--229.669380mWCRJabalpur, Madhya Pradesh
15|==|BMRBikrampur (2)  01:17 01:18+2:3601:18 01:20+2:381 2m--241.159376mWCRBikrampur Dist Narsingpur., Madhya Pradesh
16|==|SRIDShridham (3)X  01:29 01:32+1:4601:31 01:34+1:492m3252.966373mWCRShridham, Madhya Pradesh
17|==!KKBKarak Bel (2)  01:48+2:5401:49+2:551m--268.329375mWCRKarak Bel, Madhya Pradesh
18|==!BELDBelkhera (2)  01:58+2:5101:59+2:531m--272.733367mWCRState Highway 22, Madhya Pradesh
19!==|GPCGhatpindrai (2)  02:09+2:5202:10+2:541m--278.235366mWCRGhatpindra, Madhya Pradesh
20|==|NUNarsinghpur (2)X  02:20+2:2702:22+2:392m2284.068365mWCRNarsimhapur, Madhya Pradesh
21|==|KYKareli (2)X  02:36+2:5802:37+3:011m2299.947365mWCRKareli, Madhya Pradesh
22|==|KFYKarapgaon (2)X  02:48-02:49-1m--2108.547363mWCRNational Highway 26, Madhya Pradesh
23|==|BNEBohani (2)XO  02:58+3:0402:59+3:111m--2115.478361mWCRNarsinghpur, Madhya Pradesh
24|==|GARGadarwara (2)XO  03:09+3:1303:10+3:201m22128.456353mWCRNarsinghpur, Madhya Pradesh
25|==|SCKRSalichauka Road (2)X  03:25+3:1803:26+3:261m--2142.361355mWCRGadarwara, Madhya Pradesh
26|==|JHTJunehta (2)  03:36-03:37-1m--2152.451353mWCRState Highway 22, Madhya Pradesh
27|==|BKHBankhedi (2)X  03:44+3:2503:46+3:342m--2158.369351mWCRBankheri, Madhya Pradesh
28|==|PPIPipariya (3)X  04:03+2:5604:05+3:082m32177.740339mWCRPiparia, Madhya Pradesh
29|==|SXFSobhapur (2)O  04:18-04:19-1m--2186.445338mWCRState Highway 22, Madhya Pradesh
30|==|SGPSohagpur (2)X  04:31+3:3804:33+3:392m--2195.443340mWCRSohagpur, Madhya Pradesh
31|==|GMDGuramkhedi (2)  04:47+3:3404:48+3:461m--2205.549337mWCRGuramkhedi, Madhya Pradesh
32|=-|BGTABagratawa (2)  05:04+3:4205:05+4:041m--2218.529338mWCRBagra Tawa, Madhya Pradesh
33|-=|SQLSontalai (2)X  05:19+4:0105:20+4:041m--2225.427329mWCRItarsi, Madhya Pradesh
34|==|GROGurra (2)X  05:40+3:5405:41+3:561m--2234.416327mWCRItarsi, Madhya Pradesh
35|==|ETItarsi Junction (7)  06:20+2:0606:45+2:0725m--2245.057329mWCRItarsi 461111, Madhya Pradesh
35.1/==/ITMAItarsi Marshalling Yard  06:46-06:46-  2245.8 57324mWCRItarsi, Madhya Pradesh
35.2/==/JUHJujharpur CabinO  06:46-06:46-  2246.0 57322mWCRItarsi, Madhya Pradesh
35.3/==/ETBItarsi B CabinX  06:52-06:52-  2251.2 57320mWCRJamani, Madhya Pradesh
36/==/DRADularia (2)  06:58+3:5606:59+4:011m--2257.242318mWCRItarsi, Madhya Pradesh
37/==/KTZKhutwansa (2)X  07:07-07:08-1m--2262.855325mWCRSH 15, Madhya Pradesh
38/==/DKIDharamkundi (2)O  07:17 07:16+3:4907:18+3:491 2m--2270.231314mWCRSH 15, Madhya Pradesh
39/==/BPFBanapura (2)  07:34+3:4107:35+3:421m--2278.449314mWCRBanapura, Madhya Pradesh
40/==/BIFBhaironpur (2)O  07:44+3:4107:45+3:421m--2285.749322mWCRSH 15, Madhya Pradesh
41/==/PGLPagdhal (2)X  07:54+3:3907:55+3:431m--2293.041317mWCRPagdhal, Madhya Pradesh
42/==/CGOChhidgaon (2)X  08:01-08:02-1m--2297.226309mWCRHarda, Madhya Pradesh
43/==/TBNTimarni (2)  08:24+3:2808:25+3:291m--2306.747308mWCRTimarni, Madhya Pradesh
44/==/CRKCharkhera (2)XO  08:34+3:2708:35+3:381m--2313.723298mWCRBarkalan, Madhya Pradesh
45/==/HDHarda (3)X  08:53+3:0908:55+3:412m--2320.874289mWCRHarda, Madhya Pradesh
46/==/PALPalasner (2)  09:02 09:01+3:5809:03+3:581 2m--2328.244296mWCRHarda, Madhya Pradesh
47/==/MUOMasangaon (2)XO  09:12 09:11+3:5509:13+3:551 2m--2334.112303mWCRSH 15, Madhya Pradesh
48/==/BRIBhiringi (2)  09:39 09:38+3:3909:40+3:431 2m--2339.3133294mWCRSH 15, Madhya Pradesh
49/==/KROKurawan (2)X  09:44 09:43-09:45-1 2m--2345.929297mWCRSH 15, Madhya Pradesh
50/==/KKNKhirkiya (2)O  09:58+3:2310:00+3:232m12352.341281mWCRSH 15, Madhya Pradesh
51/==/DRHIDagarhkeri (2)XO  10:17 10:16+3:3410:18+3:381 2m--2363.221274mWCRState Highway 15, Madhya Pradesh
52/==/BRUDBarud (2)X  10:47 10:46+3:1810:48+3:221 2m--2372.876273mWCRKhandwa, Madhya Pradesh
53/==/CAERChhanera (2)XO  10:56+3:2310:58+3:312m--2383.023283mWCRChhanera, Madhya Pradesh
54/==/CKKDCharkheda Khurd (2)  11:17 11:16+3:2211:18+3:221 2m--2389.824274mWCRKhandwa, Madhya Pradesh
55/==/SGBJSurgaon Banjari (2)  11:47 11:46+3:0411:48+3:211 2m--2400.971298mWCRKhandwa, Madhya Pradesh
56/==/TLVTalvadiya (2)  11:58+3:0512:00+3:152m--2412.763308mWCRKhandwa, Madhya Pradesh
57/==/MTAMathela (2)XO  12:09 12:08+3:1612:10+3:161 2m--2421.06322mWCRKhandwa, Madhya Pradesh
58/==/KNWKhandwa Junction (5)  13:20+2:1713:30+2:1610m--2428.444310mCRKhandwa, Madhya Pradesh
59/==/BRGJBargaon Gujar (2)  13:37+3:2813:38+3:281m--2433.560316mCRKhandwa, Madhya Pradesh
60/==/BMABagmar (2)X  13:44+3:2713:45+3:351m--2439.566335mCRState Highway 27, Madhya Pradesh
61/==/KDKKohdad (2)X  13:49+3:3713:50+3:371m--2444.057344mCRState Highway 15, Madhya Pradesh
62/==/DGNDongargaon (2)  13:58+3:3713:59+3:381m12451.558373mCRBorgaon, Madhya Pradesh
63/==/SXASagphata (2)  14:07+3:3814:08+3:411m--2459.251350mCRKhandwa, Madhya Pradesh
64/==/MWAMandwa (2)X  14:15+3:4214:16+3:471m--2465.244317mCRState Highway 27, Madhya Pradesh
65/==/NPNRNepanagar (2)  14:24+4:3314:26+4:332m--2471.053289mCRState Highway 27, Madhya Pradesh
66/==/CDIChandni (2)X  14:34+3:4714:35+3:471m--2478.177276mCRNepanagar Rd, Madhya Pradesh
67/==/AGQAsirgarh Road (2)  14:43+3:4714:44+3:471m--2488.367259mCRState Highway 27, Madhya Pradesh
68/==/BAUBurhanpur (2)X  14:52+3:3614:55+3:363m12497.362269mCRBurhanpur, Madhya Pradesh
69/==/WGAWaghodaX  15:05+3:4615:06+3:461m--2507.560259mCRChorwad, Maharashtra
70/==/RVRaver (2)X  15:16+3:1415:18+3:142m--2517.568242mCRJalgaon, Maharashtra
71/==/NBNimbhora (2)X  15:27+3:4415:28+3:441m--2527.658229mCRJalgaon, Maharashtra
72/==/SAVSavda (2)  15:37+2:5515:38+3:101m--2536.358220mCRSavda, Maharashtra
73/==/DSKDuskheda (2)X  15:47+4:0315:48+4:031m--2545.06213mCRDuskheda Station, Maharashtra
73.1/==/BSBNBhusaval B Cabin  16:24-16:24-  2548.4 6214mCRBhusawal, Maharashtra
74/==/BSLBhusaval Junction (8)•  17:00+2:19-62551.8-208mCRBhusaval 425201, Maharashtra
Scroll to Top
Scroll to Bottom


Go to Mobile site